metlocid,date_time,avg_par,std_par,min_par,max_par,n_par,avg_swradin,std_swradin,min_swradin,max_swradin,n_swradin,avg_swradout,std_swradout,min_swradout,max_swradout,n_swradout,n_comments
VAAM,11/1/94,726.097345,448.100635,96.1,1507,452,321.7148233,208.8306997,25.9,710,452,,,,,0,0
VAAM,12/1/94,664.1186808,406.8272333,67,2067,2168,296.4506456,195.8259478,25.3,1019,2168,15.76774218,25.68099715,0,84.4,31,1
VAAM,1/1/95,610.4267834,386.0421856,72.3,1544,743,277.3981158,188.395797,19.5,740,743,41.30565305,29.82760185,0,125.7,743,0
VAAM,2/1/95,363.8455357,336.2826379,0,1186,672,161.8930062,159.726107,0.1,564.5,672,32.13720247,34.18579185,0,215,672,0
VAAM,3/1/95,89.52809123,123.9900383,0,580.8,744,31.43360217,49.9188041,0,244.2,744,24.64946232,35.14106194,0,172,744,0
VAAM,4/1/95,10.62791666,22.1197043,0,134.4,720,3.019027776,6.345566654,0,61.2,720,4.660138888,14.35218969,0,65.6,720,0
VAAM,5/1/95,0.022849462,0.194581925,0,2.5,744,0.009408602,0.068182913,0,0.8,744,0.184543011,0.741767055,0,6.3,744,0
VAAM,6/1/95,0,0,0,0,720,0,0,0,0,720,0.289305555,1.084129825,0,7.9,720,0
VAAM,7/1/95,0,0,0,0,744,0,0,0,0,744,0.184005376,0.816716052,0,8.8,744,0
VAAM,8/1/95,2.465456991,8.212900772,0,71.5,744,0.877688174,2.820800846,0,29,744,1.072043014,6.284478378,0,64.6,744,0
VAAM,9/1/95,45.21180548,69.0927833,0,347.9,720,16.28208332,26.55458907,0,145.1,720,5.316666602,16.57871326,0,65.7,720,0
VAAM,10/1/95,222.4393815,252.6838636,0,1125,744,91.59784952,113.4482398,0,501.2,744,23.50631721,46.5932496,0,261.5,744,0
VAAM,11/1/95,610.7129452,404.1025631,25.9,1580.8,1406,282.6781646,198.6421876,9.9,773,1406,53.15679712,46.22214519,0,151,1405,1
VAAM,12/1/95,593.6285279,373.8887825,61.7,1757.3,2976,268.722614,183.3653897,24,865,2976,52.59180108,35.42834523,4.7,162.8,2976,0
VAAM,1/1/96,558.1363392,370.4375079,46.8,1794.1,2972,252.7985531,181.6818361,17.8,879,2972,47.01638625,33.55233939,3.3,173.5,2972,0
VAAM,2/1/96,343.1410201,317.97679,0,1370.3,2784,154.2956538,155.0286264,0,676.6,2784,29.9784842,30.26425265,0,124.8,2784,0
VAAM,3/1/96,77.62083335,103.8529788,0,603.3,2976,27.71293683,42.36433802,0,267.3,2976,6.494388454,11.02877489,0,82.6,2976,903
VAAM,4/1/96,8.749583331,18.73437697,0,120.1,2880,2.705972221,5.899571017,0,64.6,2880,0.577291667,1.347248993,0,19,2880,1833
VAAM,5/1/96,0.014919355,0.142625536,0,1.8,2976,0.007694893,0.069943043,0,1.1,2976,0.00171371,0.017211098,0,0.2,2976,2897
VAAM,6/1/96,0,0,0,0,2880,0,0,0,0,2880,0.000138889,0.003724838,0,0.1,2880,2833
VAAM,7/1/96,0,0,0,0,2976,0,0,0,0,2976,6.72E-05,0.002591944,0,0.1,2976,2960
VAAM,8/1/96,2.459375003,8.708011159,0,70.1,2976,0.986659946,3.511213263,0,32.2,2976,0.323790324,1.106347719,0,12.7,2976,2318
VAAM,9/1/96,37.0071528,51.30793266,0,312.6,2880,10.97444444,17.6378808,0,163.5,2880,2.465520838,3.68464734,0,26.6,2880,1287
VAAM,10/1/96,219.3636424,254.0109966,0,1132.9,2976,90.18618951,112.77952,0,499.5,2976,25.4701613,33.04138499,0,149.2,2976,227
VAAM,11/1/96,558.7371997,388.0624004,28.4,1545.4,2879,251.3284474,177.8550427,10.3,672.4,2879,54.46099338,40.27351341,2.3,165.9,2879,0
VAAM,12/1/96,606.9164649,372.156598,71.5,1880.2,2976,277.4074259,174.0705963,22.3,878,2976,55.37755378,36.72041699,4.5,181.5,2976,0
VAAM,1/1/97,517.6223524,375.051656,37.5,1713.5,2975,237.8111934,178.5386454,13.8,781,2975,46.14043697,36.08232212,2.5,160.5,2975,2
VAAM,2/1/97,286.6209076,280.3484029,0,988,2688,155.9488097,158.4650737,0.1,520.2,2688,35.08552827,36.6743053,0,138.7,2688,0
VAAM,3/1/97,53.82184146,71.24572903,0,491.6,2976,24.5168347,45.54816455,0,308.7,2976,7.168548389,12.88822271,0,102.4,2976,891
VAAM,4/1/97,7.791562504,16.80939449,0,97.2,2880,3.273888889,7.435342603,0,52.2,2880,1.01378472,2.21966038,0,14.9,2880,1847
VAAM,5/1/97,0.010887097,0.096853449,0,1,2976,0.008467742,0.072706648,0,1.2,2976,0.003326613,0.027298946,0,0.4,2976,2887
VAAM,6/1/97,0,0,0,0,2880,0,0,0,0,1492,0.000670241,0.008946137,0,0.2,1492,2880
VAAM,7/1/97,0,0,0,0,2976,,,,,0,,,,,0,2976
VAAM,8/1/97,1.973353492,6.547926381,0,47.8,2976,,,,,0,,,,,0,2976
VAAM,9/1/97,33.8075347,51.05883988,0,373.2,2880,,,,,0,,,,,0,2880
VAAM,10/1/97,147.8671063,164.9129849,0,825.1,2730,,,,,0,,,,,0,2730
VAAM,11/1/97,599.1669545,385.2727335,66,1459.1,811,,,,,0,,,,,0,811
VAAM,12/1/97,552.7919016,358.1805108,38.5,1731.4,2976,,,,,0,,,,,0,2976
VAAM,1/1/98,502.5402019,341.9479374,40.3,1527.2,2975,240.7755644,188.1178441,16.9,779,1772,45.35045149,34.00853512,3,132.3,1772,1203
VAAM,2/1/98,285.987649,273.6241602,0.6,1179,2688,131.5772322,137.5742064,0,606.6,2688,35.69758187,44.3280242,0,294.9,2688,0
VAAM,3/1/98,67.08077959,91.0323967,0,585.3,2976,24.98336686,41.72395362,0,295.3,2976,6.97772178,10.85225227,0,66.7,2976,0
VAAM,4/1/98,5.524861109,12.40655099,0,138.6,2880,1.544861111,3.874103506,0,59.3,2880,1.932118053,5.174386457,0,78.2,2880,0
VAAM,5/1/98,0.013071237,0.123044746,0,2,2976,0.00625,0.048102657,0,0.6,2976,0.003091398,0.027753775,0,0.4,2976,0
VAAM,6/1/98,0,0,0,0,2880,0,0,0,0,2880,6.94E-05,0.002634774,0,0.1,2880,0
VAAM,7/1/98,0,0,0,0,2976,0,0,0,0,2976,0.000268817,0.007328658,0,0.3,2976,0
VAAM,8/1/98,1.857459677,6.977254145,0,61,2976,0.737432797,2.717558851,0,27.5,2976,0.43655914,1.339291468,0,9.3,2976,0
VAAM,9/1/98,28.28409718,48.88368593,0,344.7,2880,10.65833335,20.57706261,0,151.7,2880,11.91399305,19.82474958,0,110.3,2880,0
VAAM,10/1/98,203.7792002,232.6989847,0,1013.3,2976,92.15483872,117.1237059,0,509.1,2976,25.81639787,29.13246283,0,116.4,2976,0
VAAM,11/1/98,552.158438,393.9108111,32,1346.2,2880,268.6235418,203.9976726,8.8,686.9,2880,53.13649307,39.15640196,1.8,126.5,2880,0
VAAM,12/1/98,663.4628696,405.0781755,58,1753.1,2976,322.7120676,212.0819621,21.3,894,2975,61.30534272,38.92957128,4,167.5,2976,1
VAAM,1/1/99,475.9961007,333.2405645,38.9,1609.2,2975,224.2246051,170.4800933,16.1,832,2975,42.29317648,31.38448925,2.9,151.9,2975,0
VAAM,2/1/99,332.1973217,307.9001652,0,1278.1,2688,160.5710565,161.3765855,0.2,685.1,2688,35.89490325,35.20470569,0.1,204.9,2688,15
VAAM,3/1/99,62.90722522,82.66420627,0,430.6,2948,22.64596335,35.80134048,0,208.5,2948,14.18504072,22.11653741,0,170.2,2948,1337
VAAM,4/1/99,9.809479177,23.29005795,0,171.3,2880,3.832256944,9.86572394,0,83,2880,2.456944448,6.245959635,0,47.4,2880,2101
VAAM,5/1/99,0.014650538,0.147814597,0,2.1,2976,0.008971774,0.069064467,0,1,2976,0.008669355,0.059624402,0,0.6,2976,2941
VAAM,6/1/99,0,0,0,0,2880,0,0,0,0,2880,0.000104167,0.003226365,0,0.1,2880,2880
VAAM,7/1/99,0,0,0,0,2976,0,0,0,0,2976,0,0,0,0,2976,2976
VAAM,8/1/99,2.037701614,7.426639528,0,53.1,2976,0.751209678,2.669114713,0,22.6,2976,0.381115591,1.106469694,0,8,2976,2554
VAAM,9/1/99,39.37520833,62.80699238,0,356.7,2880,15.67822914,26.86196014,0,168.7,2880,8.349583338,16.49117462,0,96.6,2880,1641
VAAM,10/1/99,190.851781,227.9998543,0,1025.1,2976,87.73793681,119.2484093,0,522.3,2976,21.61246639,26.01027442,0,105.2,2976,278
VAAM,11/1/99,479.4083677,348.8877424,6.4,1525.7,2880,231.4120832,181.0477893,1.6,794,2880,44.43513892,33.74400857,0.4,145.1,2880,0
VAAM,12/1/99,602.1621306,374.9320417,52,1750,2976,290.4431258,197.2377277,20.1,873,2975,54.33729838,35.78508211,3.8,168.2,2976,1
VAAM,1/1/00,531.479462,360.2849795,60.1,1598.4,2975,258.3424058,191.2217482,16.9,846,2976,47.37889783,34.17286695,2.7,150.8,2976,1
VAAM,2/1/00,308.6897629,301.9405418,0.2,1266.5,2784,163.3840518,169.351724,0,710,2784,29.32974137,30.08013562,0,120.2,2784,8
VAAM,3/1/00,61.18413972,82.62208574,0,572.1,2976,27.91307124,48.97796926,0,346.9,2976,7.400571236,12.58150395,0,93.2,2976,1373
VAAM,4/1/00,8.662604178,21.3859065,0,159.6,2880,4.03440972,10.55479326,0,84.4,2880,1.137256946,2.507075945,0,15.7,2880,1905
VAAM,5/1/00,0.014952957,0.136689052,0,2,2976,0.009778226,0.074213985,0,0.9,2976,0.00406586,0.03100991,0,0.4,2976,2912
VAAM,6/1/00,0,0,0,0,2880,0,0,0,0,2880,0,0,0,0,2880,2880
VAAM,7/1/00,0,0,0,0,2976,0,0,0,0,2976,0,0,0,0,2976,2976
VAAM,8/1/00,2.578192204,8.264536259,0,65.7,2976,1.147547044,3.501535897,0,36.3,2976,0.236794354,0.631807068,0,6,2976,2336
VAAM,9/1/00,34.78628473,48.61683694,0,311.1,2880,13.17434029,21.7219412,0,182,2880,2.478333333,4.158538802,0,33.9,2880,1301
VAAM,10/1/00,188.2784946,220.8758468,0,989.1,2976,100.6247648,130.5546106,0,562.6,2976,17.69415323,23.03003182,0,95.1,2976,249
VAAM,11/1/00,479.2972924,359.9982881,29.2,1475.5,2880,249.4753125,192.7081716,10.5,765,2880,44.6598264,34.71230574,1.6,137.3,2880,0
VAAM,12/1/00,624.3211355,390.6579428,68,1720.9,2976,321.7757731,210.102531,24.5,916,2976,57.16434809,37.61087228,4.1,162.4,2976,1
VAAM,1/1/01,585.7660623,391.0194058,42.8,1695.5,2976,303.5764786,211.1031219,16,896,2976,54.45248659,37.99962361,2.6,160.5,2976,0
VAAM,2/1/01,318.982329,306.4057382,0.6,1412.1,2688,168.7597097,170.4075318,0.1,772,2688,30.97912943,31.09790351,0,135.8,2688,2
VAAM,3/1/01,57.76125676,76.94523107,0,549.7,2976,26.22405916,50.19804214,0,329.1,2976,4.729301075,8.594400875,0,78.6,2976,943
VAAM,4/1/01,6.158029451,13.89944051,0,105.3,2852,2.51409537,6.009016177,0,54.5,2852,1.639691445,4.364120109,0,39.3,2852,2197
VAAM,5/1/01,0.013776882,0.123744313,0,2,2976,0.011189516,0.083207525,0,1,2976,0.000907258,0.01280166,0,0.3,2976,2894
VAAM,6/1/01,0,0,0,0,2880,0,0,0,0,2880,0,0,0,0,2880,2880
VAAM,7/1/01,0,0,0,0,2976,0,0,0,0,2976,0,0,0,0,2976,2976
VAAM,8/1/01,1.801243278,5.953270275,0,48.6,2976,0.82016129,2.620464409,0,24.7,2976,0.716733873,2.4736274,0,23.5,2976,2587
VAAM,9/1/01,39.53045144,56.93552354,0,269.4,2880,16.13444444,25.94027276,0,210.6,2880,3.383368051,5.288139159,0,41.4,2880,1311
VAAM,10/1/01,199.9028897,236.403623,0,1013,2976,106.3720429,138.3332117,0,559.8,2976,20.80228494,26.5256004,0,102,2976,253
VAAM,11/1/01,536.3588054,375.103454,25.9,1405.8,2879,283.3349673,205.1647516,11.4,783,2877,51.8833507,37.17830208,1.8,135.8,2877,3
VAAM,12/1/01,650.1027546,400.7818888,85.7,1769.9,2976,338.4138776,219.1094894,22.8,950,2976,62.21874997,39.65011253,4.3,172,2976,3
VAAM,1/1/02,547.8897847,391.1105101,25,1663.9,2976,281.2485887,212.5554117,9.9,884,2976,51.67856181,38.63945003,1.6,157.7,2976,0
VAAM,2/1/02,304.5865325,297.7423997,0,1322.6,2688,160.1649924,167.076702,0,715,2688,31.63124999,32.45377068,0,127.2,2688,8
VAAM,3/1/02,65.76878365,86.24595477,0,564.4,2976,28.93810483,48.43065323,0,335.4,2976,6.77839382,11.1715678,0,91.9,2976,843
VAAM,4/1/02,8.639583336,17.74225061,0,111.7,2880,2.857430557,6.12119525,0,52.2,2880,1.029826387,2.19338009,0,18.6,2880,1721
VAAM,5/1/02,0.01609543,0.13751581,0,1.9,2976,0.007997312,0.056715905,0,0.8,2976,0.001814516,0.01710277,0,0.2,2976,2561
VAAM,6/1/02,3.47E-05,0.00186339,0,0.1,2880,0.001388889,0.015077022,0,0.3,2880,0,0,0,0,2880,2538
VAAM,7/1/02,0,0,0,0,2976,0.002150538,0.018391052,0,0.3,2976,6.72E-05,0.002591944,0,0.1,2976,2560
VAAM,8/1/02,2.180073921,6.972266496,0,53.7,2976,0.863272849,2.917686182,0,26.3,2976,0.324899194,1.058142493,0,9.7,2976,2028
VAAM,9/1/02,30.73600693,46.27700138,0,263.7,2880,11.74375,20.76278204,0,191.3,2880,6.371909716,9.884951547,0,68.3,2880,1419
VAAM,10/1/02,172.3250338,203.9983795,0,1020.7,2976,84.43296371,113.3352232,0,558,2976,45.00745965,53.29312459,0,278.6,2976,533
VAAM,11/1/02,482.1977782,345.9890172,15.5,1374.1,2880,251.7619443,189.9471507,5.9,764,2880,69.66881947,56.63587568,1.8,364.2,2880,0
VAAM,12/1/02,595.5581315,358.902423,50.6,1700,2976,304.8041668,194.3484867,21.4,907,2976,58.97778898,36.96824007,4.3,174.1,2976,1
VAAM,1/1/03,485.5655241,362.8645005,26.1,1806.6,2976,243.9682794,195.6431581,10,963,2976,46.50534277,36.72117797,1.9,182,2976,2
VAAM,2/1/03,299.290067,297.0191453,0.8,1138.1,2688,152.8741443,160.7344252,0.3,620.7,2688,28.69438245,30.31136479,0,113,2688,0
VAAM,3/1/03,66.47933469,90.26186965,0,527.5,2976,27.9707998,45.6884591,0,313.1,2976,15.74422041,25.46799681,0,139.5,2976,1082
VAAM,4/1/03,7.754583327,17.61255176,0,154.8,2880,2.890763886,7.594417007,0,78.4,2880,1.901458334,4.642195656,0,40.1,2880,1055
VAAM,5/1/03,0.005846774,0.063506147,0,1,2976,0.002620968,0.02024685,0,0.2,2976,0.005712366,0.043319761,0,0.6,2976,2383
VAAM,6/1/03,0.000173611,0.004927864,0,0.2,2880,0.000694444,0.010845005,0,0.2,2880,0,0,0,0,2880,1977
VAAM,7/1/03,0.000100806,0.005499267,0,0.3,2976,0.000672043,0.008573085,0,0.2,2976,0,0,0,0,2976,2138
VAAM,8/1/03,2.001041663,6.707602247,0,48.6,2976,0.694287633,2.344640427,0,22.4,2976,0.271505377,0.785092973,0,5.8,2976,1745
VAAM,9/1/03,16.27894735,27.17599076,0,123.6,855,6.152280716,11.12689916,0,61,855,1.829707599,3.320425994,0,16.5,855,2318
VAAM,10/1/03,,,,,0,,,,,0,,,,,0,2976
VAAM,11/1/03,,,,,0,,,,,0,,,,,0,2880
VAAM,12/1/03,605.929124,386.125508,68.1,1691.3,2249,310.2725132,200.7236211,22.4,866,2252,61.25488455,38.54452985,4.1,160.1,2252,726
VAAM,1/1/04,551.2016801,379.9040668,52.7,1610.7,2976,282.5633065,198.1941299,14.7,835,2976,54.98044351,37.93600933,2.4,158.9,2976,0
VAAM,2/1/04,301.7255387,295.9406224,0.4,1247.9,2784,152.1827227,156.936626,0.2,655.5,2784,37.44888651,37.86022974,0.2,233.5,2784,39
VAAM,3/1/04,69.34116263,95.78522238,0,579.3,2976,27.44677417,45.97774286,0,291.1,2976,16.95611559,28.02842646,0,180.7,2976,577
VAAM,4/1/04,8.695104162,19.73305121,0,127,2880,3.485034724,8.674378185,0,70.1,2880,1.613715278,3.83348568,0,26.7,2880,1045
VAAM,5/1/04,0.021572581,0.151535602,0,2,2976,0.009240592,0.05535488,0,0.7,2976,0.002452957,0.019848954,0,0.2,2976,2328
VAAM,6/1/04,0.000347222,0.010537035,0,0.5,2880,0.0009375,0.011896695,0,0.2,2880,6.94E-05,0.002634774,0,0.1,2880,2328
VAAM,7/1/04,0.000705645,0.019476494,0,0.7,2976,0.000638441,0.009505186,0,0.2,2976,0.000100806,0.003173936,0,0.1,2976,2523
VAAM,8/1/04,2.059576603,6.239154372,0,43.3,2976,0.896001343,2.654902062,0,22,2976,0.28044355,1.473980708,0,21.6,2976,1882
VAAM,9/1/04,36.92184025,54.7513849,0,268.2,2880,15.3950347,24.65590675,0,131.6,2880,7.035590284,11.80514784,0,77.3,2880,855
VAAM,10/1/04,178.5609542,214.6951702,0,979.7,2976,88.64492615,116.4961188,0,515.4,2976,22.66357527,29.0086715,0,124.9,2976,152
VAAM,11/1/04,476.7492704,341.889605,33.5,1395.2,2880,254.4226738,185.8066469,10.3,761,2880,53.92218754,39.11311159,2,153.9,2880,0
VAAM,12/1/04,511.4923028,358.7506232,76.3,1618.4,2975,268.0178488,194.4369384,21.6,873,2975,53.48830256,38.67665756,4,173.2,2975,1
VAAM,1/1/05,467.8982862,342.1726887,34.4,1612.2,2976,243.9422379,183.5766537,15.6,863,2976,47.83390457,35.83639165,2.8,166.4,2976,0
VAAM,2/1/05,296.418378,287.6734082,0,1130.1,2688,153.184747,156.405249,0.2,624.6,2688,40.02912949,39.94255995,0.2,217,2688,38
VAAM,3/1/05,66.22899875,91.18005034,0,572,2976,27.18961694,45.2586757,0,300.5,2976,14.18551748,24.19893424,0,155.7,2976,787
VAAM,4/1/05,8.257847221,18.35491653,0,111,2880,3.535486112,8.341096107,0,57.2,2880,1.542499999,3.478708021,0,25,2880,1627
VAAM,5/1/05,0.02422715,0.188869451,0,2.1,2976,0.018010753,0.109750863,0,1.4,2976,0.009139785,0.068774136,0,1.1,2976,2499
VAAM,6/1/05,0.001145833,0.026659696,0,1,2880,0.002222222,0.019420019,0,0.3,2880,6.94E-05,0.002634774,0,0.1,2880,2488
VAAM,7/1/05,0.00047043,0.014193636,0,0.7,2976,0.000907258,0.011988095,0,0.2,2976,3.36E-05,0.001833089,0,0.1,2976,2482
VAAM,8/1/05,2.218850804,7.33507133,0,61.1,2976,1.039952957,3.178173437,0,29.8,2976,0.36310484,1.192527005,0,12.1,2976,2133
VAAM,9/1/05,29.70631946,40.05560334,0,236.7,2880,10.20336804,15.80615242,0,135.1,2880,2.719270833,4.188362812,0,32.9,2880,1086
VAAM,10/1/05,187.1201949,226.4398179,0,929.8,2976,97.04385094,126.7060899,0,506.1,2976,20.13353494,25.66413665,0,100.2,2976,179
VAAM,11/1/05,483.9437499,351.6423888,25.8,1282,2880,266.0818404,195.2639711,8.8,702,2880,53.40756944,38.93699669,1.6,138.2,2880,0
VAAM,12/1/05,584.1626894,377.9731674,58.3,1581.8,2975,298.4018495,199.3549604,22.4,840,2974,57.90191594,38.44887452,4.2,163.1,2975,172
VAAM,1/1/06,560.5507393,399.9984308,39.6,1609.5,2976,275.8149192,203.8348255,16.5,806,2976,52.04341394,37.68166184,2.9,148.2,2976,272
VAAM,2/1/06,316.7129467,328.5471016,0,1203.5,2688,157.2433037,170.167283,0,610.3,2688,42.14877231,43.31882226,0,268.1,2688,433
VAAM,3/1/06,56.87731854,82.18748262,0,592.7,2976,22.14872311,38.41558865,0,298.7,2976,11.62725134,22.14004183,0,257.3,2976,1403
VAAM,4/1/06,6.858055558,13.7683514,0,67.6,2880,2.271770825,4.593663208,0,30.4,2880,1.856562502,5.46175614,0,56.7,2880,1883
VAAM,5/1/06,0.016263441,0.148802331,0,2.2,2976,0.014583334,0.095701012,0,1.3,2976,0.005880376,0.048807954,0,0.6,2976,2564
VAAM,6/1/06,0,0,0,0,2880,0.00125,0.013119008,0,0.2,2880,3.47E-05,0.00186339,0,0.1,2880,2600
VAAM,7/1/06,0.000134409,0.007332356,0,0.4,2976,0.002520161,0.025609208,0,0.5,2976,6.72E-05,0.002591944,0,0.1,2976,2798
VAAM,8/1/06,1.973017474,6.270738862,0,43.5,2976,0.943850808,2.803880118,0,20.4,2976,0.554435484,2.083973372,0,21.3,2976,2021
VAAM,9/1/06,34.0184375,49.4170051,0,246.8,2880,13.26236113,20.65336945,0,111.6,2880,8.474618054,14.20584678,0,99.4,2880,1493
VAAM,10/1/06,194.149832,230.7021316,0,1046.6,2976,89.45023523,117.2584256,0,524.8,2976,42.92708331,50.96678324,0,227.2,2976,284
VAAM,11/1/06,536.3568055,384.4505019,20.1,1610.8,2880,259.6716321,192.5474977,8.6,810,2880,73.74250003,63.8291475,2.4,337.1,2880,243
VAAM,12/1/06,609.627722,390.8258603,88.2,1678,2976,297.8236898,200.9730679,22.9,861,2976,58.36451622,38.82913423,4.2,164.3,2976,146
VAAM,1/1/07,569.8648521,383.3835023,39.7,1522.5,2976,280.2888441,195.2122547,15.3,800,2976,54.33834011,37.25328118,2.5,150.2,2976,0
VAAM,2/1/07,286.5016738,287.1836342,0,1330,2688,139.2887277,148.3844207,0,697.5,2688,36.40974702,41.8117841,0.1,270,2688,343
VAAM,3/1/07,58.774832,72.51709313,0,500.1,2976,21.26155915,32.50203362,0,257.7,2976,13.36653226,27.08424089,0,231.2,2976,421
VAAM,4/1/07,9.321493061,19.34551007,0,117.3,2880,2.926805558,5.992921345,0,55,2880,1.092361113,2.343842825,0,22.2,2880,1101
VAAM,5/1/07,0.024462365,0.197972187,0,2.6,2976,0.009509409,0.082687798,0,1.3,2976,0.000403226,0.008589932,0,0.2,2976,822
VAAM,6/1/07,0,0,0,0,2880,0.000208333,0.005267258,0,0.2,2880,6.94E-05,0.002634774,0,0.1,2880,1435
VAAM,7/1/07,0,0,0,0,2976,0,0,0,0,2976,0,0,0,0,2976,981
VAAM,8/1/07,2.240961018,7.360958932,0,57.7,2976,0.943850806,3.073491289,0,32,2976,0.157392473,0.578150445,0,6.4,2976,543
VAAM,9/1/07,34.3273959,51.25571154,0,309.6,2880,12.62493057,21.23130013,0,145.1,2880,3.513437505,5.731282282,0,32.5,2880,445
VAAM,10/1/07,192.1836022,237.1865042,0,1036.1,2976,90.00756059,120.6117051,0,523.7,2976,36.06928766,65.97241512,0,313.4,2976,120
VAAM,11/1/07,508.2913194,368.416259,30.6,1444.7,2880,250.1691319,188.0662719,9,748,2880,58.46170138,46.42797688,3.1,269.3,2880,0
VAAM,12/1/07,626.2819162,390.8413138,62.1,1738.7,2975,305.26437,197.5195895,23.4,862,2975,60.26760754,38.51798446,4.2,166.9,2976,1
VAAM,1/1/08,538.5864248,382.9348653,40.7,1904.9,2976,260.2835015,193.2426336,15.8,973,2976,50.55114245,37.21477948,2.7,180.5,2976,2
VAAM,2/1/08,298.1445403,279.8524557,0,1248,2784,144.6557113,142.2252898,0,645.2,2784,29.62618536,29.24218846,0,121.9,2784,0
VAAM,3/1/08,64.83249338,88.36817569,0,537.3,2976,25.82315188,40.76528219,0,268.4,2976,9.275974452,14.13525721,0,80.8,2976,649
VAAM,4/1/08,8.689861121,18.81194377,0,111,2880,3.097361111,7.142335948,0,61.8,2880,0.618472223,1.481978962,0,13.1,2880,345
VAAM,5/1/08,0.021337366,0.167527825,0,2.4,2976,0.008938172,0.071343046,0,1.1,2976,0.000168011,0.004096155,0,0.1,2976,232
VAAM,6/1/08,0,0,0,0,2880,0.000277778,0.005264052,0,0.1,2880,3.47E-05,0.00186339,0,0.1,2880,1383
VAAM,7/1/08,0.001579301,0.028061022,0,0.7,2976,0.002116936,0.018486091,0,0.2,2976,6.72E-05,0.002591944,0,0.1,2976,924
VAAM,8/1/08,2.429401878,7.573339279,0,47.5,2976,0.925201614,2.667281364,0,23,2976,0.203561829,0.608953433,0,5,2976,455
VAAM,9/1/08,39.14392368,58.86857155,0,320.2,2880,15.21614585,25.91104205,0,161.2,2880,3.194444443,5.538361945,0,34.9,2880,878
VAAM,10/1/08,197.3913309,221.2391759,0,1067.2,2976,91.97214384,111.3343397,0,545.7,2976,30.59774865,38.14351921,0,168.3,2976,122
VAAM,11/1/08,535.098611,378.2237544,24.7,1533.3,2880,266.9932639,193.6329063,6.7,804,2880,57.86256937,40.97386335,1.6,158.8,2880,0
VAAM,12/1/08,687.9554472,414.585134,85.5,1848.5,2974,340.1150976,210.1452268,22.1,957,2974,69.17003033,41.64603853,4.1,183.9,2973,2
VAAM,1/1/09,515.9293342,378.2499496,37.4,1605.5,2976,248.9369287,190.4809056,15.8,795,2976,51.10937501,38.09625454,3,158.8,2976,0
VAAM,2/1/09,295.4599704,297.3318838,0.5,1193.1,2688,141.590811,150.6089556,0,600.4,2688,43.01878721,51.19592036,0,313.4,2688,26
VAAM,3/1/09,59.98477817,81.19580473,0,580.1,2976,21.95950939,38.20092539,0,290.2,2976,7.171034937,12.59803987,0,102.5,2976,93
VAAM,4/1/09,7.94180555,17.87853741,0,128.2,2880,2.920520836,7.026420083,0,63.8,2880,0.933958333,2.443006393,0,25.3,2880,633
VAAM,5/1/09,0.023387097,0.185392842,0,2.4,2976,0.008568548,0.078068064,0,1.3,2976,0.001075269,0.014855711,0,0.3,2976,760
VAAM,6/1/09,0.000763889,0.013674114,0,0.4,2880,0.001041667,0.012318498,0,0.2,2880,0,0,0,0,2880,909
VAAM,7/1/09,0.001075269,0.018117814,0,0.6,2976,0.001344086,0.014373454,0,0.2,2976,3.36E-05,0.001833089,0,0.1,2976,1058
VAAM,8/1/09,2.413541661,7.493842922,0,48.1,2976,0.924596778,2.610531981,0,18.6,2976,0.196908602,0.577421553,0,3.9,2976,419
VAAM,9/1/09,33.12392367,44.20007958,0,282.2,2880,10.62635416,15.60464265,0,135.5,2880,2.345243051,3.509568855,0,28.9,2880,576
VAAM,10/1/09,189.4022514,213.8867456,0,984.3,2976,89.39042334,109.2249648,0,499.9,2976,22.51562497,26.27610281,0,112.6,2976,91
VAAM,11/1/09,497.7947892,375.5186815,25,1472.2,2879,246.7089237,190.8950938,9.2,754,2880,53.37434027,40.92223903,2,159.2,2880,1
VAAM,12/1/09,543.6728491,362.8651446,75.2,1743.8,2976,264.3493617,184.7625847,22,895,2976,55.48427422,38.24372292,4.4,181.4,2976,0
VAAM,1/1/10,525.8781585,366.9409199,24.8,1587.6,2976,257.6638777,186.4798641,11,816,2976,53.80288975,38.24548643,2,164.9,2976,0
VAAM,2/1/10,297.7700521,295.4391716,0,1269.6,2688,144.7307664,153.0772026,0.2,667,2688,49.98195685,53.35134455,0.2,354.7,2688,162
VAAM,3/1/10,65.04297707,85.72333867,0,513.1,2976,26.98739916,41.79763457,0,266,2976,10.00356183,15.05934347,0,91.1,2976,746
VAAM,4/1/10,8.311180577,18.39760778,0,118.7,2880,3.216840276,7.530429489,0,67.3,2880,1.345381946,3.161692099,0,30.7,2880,1820
VAAM,5/1/10,0.01515457,0.113384196,0,1.5,2976,0.016263441,0.092350901,0,1.3,2976,0.01031586,0.070611504,0,1,2976,2802
VAAM,6/1/10,0,0,0,0,2880,0.002534722,0.018928363,0,0.2,2880,0,0,0,0,2880,2735
VAAM,7/1/10,0,0,0,0,2976,0.002284946,0.01800525,0,0.2,2976,0,0,0,0,2976,2785
VAAM,8/1/10,2.121740592,7.279832938,0,63,2976,0.878528226,2.645052329,0,22.8,2976,0.333198926,1.086451315,0,14.1,2976,2192
VAAM,9/1/10,31.88250002,45.59367159,0,324.2,2880,11.90510417,19.09295335,0,160.6,2880,5.361076387,9.128413636,0,69.1,2880,1220
VAAM,10/1/10,203.0903899,235.3705667,0,992.9,2976,98.83017482,122.1924374,0,502.2,2976,30.18286292,33.25045983,0,122.8,2976,159
VAAM,11/1/10,538.7332633,384.9766769,30.1,1527.3,2880,271.4005906,197.7872851,9.3,783,2879,58.3382424,41.76022947,2,161.6,2879,145
VAAM,12/1/10,650.2917003,397.1119228,78.3,1752.7,2976,326.6029905,201.9930669,22.8,903,2976,68.68686156,41.42116832,4.6,178,2976,2976
VAAM,1/1/11,488.3062498,359.6091733,44.2,2040.5,2976,236.8061155,181.9152391,16.8,1046,2976,49.15483874,37.41319321,3.2,213,2976,2976
VAAM,2/1/11,286.938579,274.0514063,0.7,1297.5,2688,138.7446056,139.538781,0.3,675.9,2688,35.50081843,35.20665881,0.1,239.8,2688,2688
VAAM,3/1/11,72.35305776,95.61370736,0,512.5,2976,29.39959679,44.67152621,0,264,2976,16.95722445,27.15533219,0,161.4,2976,2976
VAAM,4/1/11,7.506006943,15.69934842,0,95.1,2880,2.861319447,6.05045393,0,50.4,2880,1.688333335,4.458995698,0,46.3,2880,2880
VAAM,5/1/11,0.015288978,0.115073014,0,1.5,2976,0.01374328,0.09556185,0,1.6,2976,0.006182796,0.03804569,0,0.5,2976,2976
VAAM,6/1/11,0,0,0,0,2880,0.000659722,0.009295178,0,0.2,2880,6.94E-05,0.002634774,0,0.1,2880,2880
VAAM,7/1/11,0,0,0,0,2976,0.000974462,0.011698942,0,0.2,2976,3.36E-05,0.001833089,0,0.1,2976,2976
VAAM,8/1/11,1.780107526,5.970652107,0,52.5,2976,0.949193549,3.105702978,0,40.4,2976,0.291061827,0.90959816,0,10.6,2976,2976